Location: Camerons Lookout
(40.9833°S, 175.9333°E)
Time: 15:30:55
(UTC+00:00)

CZ-4B R/B - Pass Details

Date: 14 January 2026
Orbit: 807 x 881 km, 98.9° (Epoch: 9 February)

Event Time Altitude Azimuth Distance (km) Brightness Sun altitude
Rises 08:53:06 0° 159° (SSE) 3,473 6.7 -10.7°
Reaches altitude 10° 08:55:39 10° 150° (SSE) 2,539 5.8 -11.0°
Maximum altitude 09:00:55 39° 82° (E) 1,308 3.8 -11.8°
Enters shadow 09:05:50 12° 16° (NNE) 2,419 5.1 -12.4°
